Satellite: MET-3/5
Catalog number: 21655
Epoch time:      10307.96282645
Element set:    0957
Inclination:      082.5584 deg
RA of node:       209.8746 deg
Eccentricity:    0.0013941
Arg of perigee:   005.0232 deg
Mean anomaly:     355.0978 deg
Mean motion:   13.17023636 rev/day
Decay rate:        5.1e-07 rev/day^2
Epoch rev:           92407
Checksum:              307

Satellite: MET-2/21
Catalog number: 22782
Epoch time:      10308.50734280
Element set:     929
Inclination:      082.5451 deg
RA of node:       141.1374 deg
Eccentricity:    0.0022843
Arg of perigee:   012.7875 deg
Mean anomaly:     347.3873 deg
Mean motion:   13.83649879 rev/day
Decay rate:       1.09e-06 rev/day^2
Epoch rev:           86748
Checksum:              328

Satellite: OKEAN-4
Catalog number: 23317
Epoch time:      10308.74595704
Element set:     384
Inclination:      082.5411 deg
RA of node:       222.6525 deg
Eccentricity:    0.0023140
Arg of perigee:   135.1454 deg
Mean anomaly:     225.1654 deg
Mean motion:   14.82887409 rev/day
Decay rate:       3.27e-06 rev/day^2
Epoch rev:           86728
Checksum:              295

Satellite: NOAA-14
Catalog number: 23455
Epoch time:      10307.70278095
Element set:    0253
Inclination:      098.8700 deg
RA of node:       027.4100 deg
Eccentricity:    0.0009044
Arg of perigee:   195.5856 deg
Mean anomaly:     164.5050 deg
Mean motion:   14.13798679 rev/day
Decay rate:       -2.2e-07 rev/day^2
Epoch rev:           81721
Checksum:              296

Satellite: NOAA-15
Catalog number: 25338
Epoch time:      10307.82686143
Element set:    0581
Inclination:      098.6343 deg
RA of node:       292.3523 deg
Eccentricity:    0.0011269
Arg of perigee:   032.9335 deg
Mean anomaly:     327.2514 deg
Mean motion:   14.24863522 rev/day
Decay rate:        2.7e-07 rev/day^2
Epoch rev:           64863
Checksum:              301

Satellite: RESURS
Catalog number: 25394
Epoch time:      10307.59256407
Element set:    0644
Inclination:      098.3015 deg
RA of node:       318.0628 deg
Eccentricity:    0.0001405
Arg of perigee:   132.5567 deg
Mean anomaly:     227.5730 deg
Mean motion:   14.24214129 rev/day
Decay rate:        7.0e-08 rev/day^2
Epoch rev:           64019
Checksum:              273

Satellite: FENGYUN1
Catalog number: 25730
Epoch time:      10307.70362148
Element set:     175
Inclination:      098.7994 deg
RA of node:       269.1108 deg
Eccentricity:    0.0020184
Arg of perigee:   232.5763 deg
Mean anomaly:     127.3569 deg
Mean motion:   14.08376328 rev/day
Decay rate:      1.087e-05 rev/day^2
Epoch rev:           59132
Checksum:              308

Satellite: OKEAN-0
Catalog number: 25860
Epoch time:      10307.67802270
Element set:    0141
Inclination:      097.8532 deg
RA of node:       275.7823 deg
Eccentricity:    0.0001437
Arg of perigee:   052.8351 deg
Mean anomaly:     307.2979 deg
Mean motion:   14.73677657 rev/day
Decay rate:       1.02e-06 rev/day^2
Epoch rev:           60744
Checksum:              301

Satellite: NOAA-16
Catalog number: 26536
Epoch time:      10307.62343890
Element set:    0057
Inclination:      099.1644 deg
RA of node:       328.3391 deg
Eccentricity:    0.0009921
Arg of perigee:   308.6555 deg
Mean anomaly:     051.3743 deg
Mean motion:   14.12583119 rev/day
Decay rate:       1.46e-06 rev/day^2
Epoch rev:           52151
Checksum:              295

Satellite: NOAA-17
Catalog number: 27453
Epoch time:      10307.87524112
Element set:    0048
Inclination:      098.4146 deg
RA of node:       352.5697 deg
Eccentricity:    0.0012747
Arg of perigee:   089.1265 deg
Mean anomaly:     271.1363 deg
Mean motion:   14.24205844 rev/day
Decay rate:       2.35e-06 rev/day^2
Epoch rev:           43458
Checksum:              304

Satellite: NOAA-18
Catalog number: 28654
Epoch time:      10307.88626590
Element set:    0538
Inclination:      098.9663 deg
RA of node:       253.8462 deg
Eccentricity:    0.0014796
Arg of perigee:   022.7260 deg
Mean anomaly:     337.4561 deg
Mean motion:   14.11404485 rev/day
Decay rate:        3.6e-07 rev/day^2
Epoch rev:           28114
Checksum:              319

Satellite: NOAA-19
Catalog number: 33591
Epoch time:      10307.90475242
Element set:    0734
Inclination:      098.8015 deg
RA of node:       247.1345 deg
Eccentricity:    0.0013292
Arg of perigee:   253.4626 deg
Mean anomaly:     106.5116 deg
Mean motion:   14.11098430 rev/day
Decay rate:       1.76e-06 rev/day^2
Epoch rev:           08961
Checksum:              290

/EX
SB KEPS @ AMSAT  $ORB10308.M
Orbital Elements  10308.MISC

HR AMSAT ORBITAL ELEMENTS FOR MANNED AND MISCELLANEOUS SATELLITES
FROM WA5QGD FORT WORTH,TX November 4, 2010
BID: ORB10308.M
TO ALL RADIO AMATEURS BT

Satellite: HUBBLE
Catalog number: 20580
Epoch time:      10307.67721778
Element set:     671
Inclination:      028.4691 deg
RA of node:       049.1646 deg
Eccentricity:    0.0003439
Arg of perigee:   240.8916 deg
Mean anomaly:     119.1353 deg
Mean motion:   15.01080128 rev/day
Decay rate:       5.48e-06 rev/day^2
Epoch rev:           92573
Checksum:              295

Satellite: ISS
Catalog number: 25544
Epoch time:      10309.02977303
Element set:     214
Inclination:      051.6457 deg
RA of node:       229.9395 deg
Eccentricity:    0.0008070
Arg of perigee:   159.0373 deg
Mean anomaly:     288.5994 deg
Mean motion:   15.72316712 rev/day
Decay rate:     2.3092e-04 rev/day^2
Epoch rev:           68562
Checksum:              311

